AXB2720 VOCI-VAPO

Flight info

Callsign AXB2720
Flight time 1h 19m
Altitude 34000
Route CLC1C CLC V86 MML Q12 KANTI W15 GGO/N0467F350 W67 MPG J5 PEGBO W67 EPKOS/N0464F360 W128 PPN
Aircraft B38M/M-SDE1FGHILORVWXY/HB1

Departure

Time 2026-04-22 07:34
Airport Cochin International Airport (VOCI)

Arrival

Time 2026-04-22 08:53
Airport Pune International Airport (VAPO)
Time Latitude Longitude Altitude Speed Heading
2026-04-22 06:44 10.15425 76.39096 41 ft 0 kts 359°
2026-04-22 07:18 10.15406 76.39096 39 ft 3 kts 359°
2026-04-22 07:18 10.15388 76.39096 39 ft 3 kts 356°
2026-04-22 07:18 10.15369 76.39098 37 ft 3 kts 338°
2026-04-22 07:18 10.15355 76.39108 41 ft 3 kts 309°
2026-04-22 07:19 10.15346 76.39124 41 ft 3 kts 278°
2026-04-22 07:19 10.15347 76.39143 39 ft 3 kts 251°
2026-04-22 07:19 10.15351 76.39157 39 ft 0 kts 263°
2026-04-22 07:24 10.15351 76.39154 41 ft 1 kts 263°
2026-04-22 07:24 10.15350 76.39138 41 ft 4 kts 267°
2026-04-22 07:24 10.15347 76.39098 41 ft 7 kts 258°
2026-04-22 07:25 10.15323 76.39069 41 ft 0 kts 205°
2026-04-22 07:26 10.15308 76.39063 41 ft 5 kts 200°
2026-04-22 07:26 10.15268 76.39073 41 ft 7 kts 132°
2026-04-22 07:26 10.15254 76.39138 41 ft 12 kts 89°
2026-04-22 07:27 10.15256 76.39209 41 ft 18 kts 88°
2026-04-22 07:27 10.15263 76.39412 41 ft 24 kts 88°
2026-04-22 07:27 10.15267 76.39527 41 ft 24 kts 88°
2026-04-22 07:27 10.15274 76.39722 41 ft 19 kts 88°
2026-04-22 07:28 10.15283 76.39957 41 ft 21 kts 88°
2026-04-22 07:28 10.15293 76.40165 41 ft 23 kts 86°
2026-04-22 07:28 10.15299 76.40278 41 ft 22 kts 88°
2026-04-22 07:29 10.15304 76.40440 41 ft 24 kts 86°
2026-04-22 07:29 10.15317 76.40650 41 ft 20 kts 86°
2026-04-22 07:29 10.15324 76.40750 40 ft 22 kts 86°
2026-04-22 07:29 10.15330 76.40903 41 ft 22 kts 87°
2026-04-22 07:30 10.15332 76.41059 41 ft 22 kts 89°
2026-04-22 07:30 10.15334 76.41216 41 ft 18 kts 89°
2026-04-22 07:30 10.15339 76.41347 41 ft 19 kts 88°
2026-04-22 07:30 10.15338 76.41485 42 ft 20 kts 91°
2026-04-22 07:31 10.15326 76.41585 39 ft 7 kts 133°
2026-04-22 07:31 10.15296 76.41593 42 ft 4 kts 179°
2026-04-22 07:31 10.15262 76.41593 42 ft 6 kts 179°
2026-04-22 07:31 10.15228 76.41594 42 ft 7 kts 179°
2026-04-22 07:32 10.15175 76.41589 41 ft 5 kts 205°
2026-04-22 07:32 10.15166 76.41576 41 ft 1 kts 257°
2026-04-22 07:32 10.15165 76.41562 41 ft 4 kts 265°
2026-04-22 07:32 10.15162 76.41506 41 ft 15 kts 267°
2026-04-22 07:33 10.15154 76.41335 41 ft 40 kts 268°
2026-04-22 07:33 10.15133 76.40821 41 ft 105 kts 268°
2026-04-22 07:33 10.15107 76.39884 41 ft 158 kts 269°
2026-04-22 07:33 10.15079 76.38654 355 ft 182 kts 266°
2026-04-22 07:34 10.15002 76.37398 1293 ft 168 kts 264°
2026-04-22 07:34 10.14927 76.36318 2372 ft 145 kts 271°
2026-04-22 07:34 10.14963 76.35278 2816 ft 152 kts 271°
2026-04-22 07:34 10.14988 76.34164 3169 ft 164 kts 271°
2026-04-22 07:35 10.15004 76.32966 3543 ft 177 kts 271°
2026-04-22 07:35 10.15014 76.31670 3920 ft 191 kts 271°
2026-04-22 07:35 10.15038 76.30271 4330 ft 206 kts 276°
2026-04-22 07:35 10.15398 76.28799 4677 ft 225 kts 301°
2026-04-22 07:36 10.16478 76.27666 5273 ft 229 kts 335°
2026-04-22 07:36 10.18020 76.27238 5799 ft 236 kts
2026-04-22 07:36 10.19671 76.27501 6320 ft 248 kts 13°
2026-04-22 07:36 10.21440 76.27800 6754 ft 266 kts 11°
2026-04-22 07:37 10.23320 76.28085 7164 ft 281 kts 11°
2026-04-22 07:37 10.25260 76.28368 7963 ft 280 kts
2026-04-22 07:37 10.27216 76.28210 8637 ft 292 kts 342°
2026-04-22 07:37 10.28954 76.27123 9448 ft 295 kts 327°
2026-04-22 07:38 10.30701 76.26026 10013 ft 300 kts 340°
2026-04-22 07:38 10.32709 76.25335 10389 ft 312 kts 345°
2026-04-22 07:38 10.34821 76.24599 10694 ft 329 kts 343°
2026-04-22 07:38 10.37006 76.23816 10928 ft 346 kts 343°
2026-04-22 07:39 10.39356 76.22960 11214 ft 361 kts 342°
2026-04-22 07:39 10.41716 76.22093 11649 ft 367 kts 342°
2026-04-22 07:39 10.44139 76.21201 12386 ft 367 kts 341°
2026-04-22 07:39 10.46531 76.20322 12957 ft 373 kts 341°
2026-04-22 07:40 10.49010 76.19410 13705 ft 373 kts 341°
2026-04-22 07:40 10.51463 76.18508 14228 ft 379 kts 341°
2026-04-22 07:40 10.53912 76.17607 14851 ft 380 kts 341°
2026-04-22 07:40 10.56419 76.16684 15414 ft 385 kts 340°
2026-04-22 07:41 10.58946 76.15754 15956 ft 388 kts 340°
2026-04-22 07:41 10.61501 76.14812 16534 ft 391 kts 340°
2026-04-22 07:41 10.64066 76.13868 17020 ft 396 kts 340°
2026-04-22 07:41 10.66663 76.12911 17570 ft 398 kts 340°
2026-04-22 07:42 10.69285 76.11945 18054 ft 403 kts 340°
2026-04-22 07:42 10.71939 76.10967 18471 ft 406 kts 340°
2026-04-22 07:42 10.74597 76.09986 18937 ft 408 kts 339°
2026-04-22 07:42 10.77279 76.08998 19317 ft 412 kts 339°
2026-04-22 07:43 10.79980 76.08002 19793 ft 413 kts 339°
2026-04-22 07:43 10.82655 76.07016 20178 ft 418 kts 339°
2026-04-22 07:43 10.85316 76.06034 20583 ft 420 kts 339°
2026-04-22 07:43 10.88068 76.05019 21048 ft 421 kts 338°
2026-04-22 07:44 10.90842 76.03995 21339 ft 427 kts 338°
2026-04-22 07:44 10.93628 76.02967 21857 ft 426 kts 338°
2026-04-22 07:44 10.96430 76.01932 22175 ft 432 kts 338°
2026-04-22 07:44 10.99271 76.00883 22537 ft 434 kts 338°
2026-04-22 07:45 11.02102 75.99838 22986 ft 436 kts 338°
2026-04-22 07:45 11.04979 75.98775 23249 ft 441 kts 337°
2026-04-22 07:45 11.07859 75.97711 23683 ft 441 kts 337°
2026-04-22 07:45 11.10756 75.96641 23916 ft 446 kts 337°
2026-04-22 07:46 11.13659 75.95502 24232 ft 446 kts 331°
2026-04-22 07:46 11.16344 75.93931 24506 ft 446 kts 326°
2026-04-22 07:46 11.19045 75.92342 24788 ft 450 kts 327°
2026-04-22 07:46 11.21767 75.90746 25097 ft 452 kts 326°
2026-04-22 07:47 11.24498 75.89140 25402 ft 454 kts 326°
2026-04-22 07:47 11.27240 75.87527 25695 ft 457 kts 326°
2026-04-22 07:47 11.29996 75.85905 25995 ft 459 kts 326°
2026-04-22 07:47 11.32741 75.84289 26278 ft 462 kts 326°
2026-04-22 07:48 11.35532 75.82645 26572 ft 465 kts 326°
2026-04-22 07:48 11.38381 75.80968 26853 ft 467 kts 326°
2026-04-22 07:48 11.41190 75.79313 27125 ft 470 kts 326°
2026-04-22 07:48 11.44032 75.77638 27420 ft 472 kts 325°
2026-04-22 07:49 11.46884 75.75957 27691 ft 475 kts 325°
2026-04-22 07:49 11.49717 75.74307 28000 ft 477 kts 328°
2026-04-22 07:49 11.52610 75.72890 28210 ft 482 kts 330°
2026-04-22 07:49 11.55635 75.71407 28506 ft 483 kts 329°
2026-04-22 07:50 11.58624 75.69920 28717 ft 487 kts 329°
2026-04-22 07:50 11.61679 75.68391 28984 ft 488 kts 329°
2026-04-22 07:50 11.64730 75.66862 29232 ft 491 kts 329°
2026-04-22 07:50 11.67801 75.65323 29474 ft 493 kts 329°
2026-04-22 07:51 11.70885 75.63775 29727 ft 495 kts 328°
2026-04-22 07:51 11.73982 75.62221 29954 ft 497 kts 328°
2026-04-22 07:51 11.77102 75.60656 30138 ft 500 kts 328°
2026-04-22 07:51 11.80222 75.59089 30340 ft 502 kts 328°
2026-04-22 07:52 11.83356 75.57515 30578 ft 503 kts 328°
2026-04-22 07:52 11.86497 75.55938 30881 ft 502 kts 328°
2026-04-22 07:52 11.89633 75.54362 31160 ft 502 kts 328°
2026-04-22 07:52 11.92668 75.52646 31407 ft 496 kts 319°
2026-04-22 07:53 11.95465 75.50615 31782 ft 493 kts 320°
2026-04-22 07:53 11.98298 75.48624 31996 ft 495 kts 320°
2026-04-22 07:53 12.01138 75.46616 32267 ft 496 kts 319°
2026-04-22 07:53 12.03967 75.44612 32575 ft 495 kts 319°
2026-04-22 07:54 12.06799 75.42604 32855 ft 496 kts 319°
2026-04-22 07:54 12.09638 75.40591 33152 ft 496 kts 319°
2026-04-22 07:54 12.12459 75.38589 33437 ft 496 kts 319°
2026-04-22 07:54 12.15298 75.36574 33728 ft 496 kts 319°
2026-04-22 07:55 12.20961 75.32554 33814 ft 495 kts 319°
2026-04-22 07:55 12.26852 75.28823 33861 ft 501 kts 323°
2026-04-22 07:56 12.32847 75.25283 33835 ft 501 kts 324°
2026-04-22 07:56 12.38891 75.21728 33827 ft 501 kts 324°
2026-04-22 07:57 12.44936 75.18172 33823 ft 502 kts 324°
2026-04-22 07:57 12.50993 75.14607 33835 ft 503 kts 324°
2026-04-22 07:58 12.57063 75.11031 33845 ft 503 kts 323°
2026-04-22 07:58 12.62806 75.07647 33850 ft 504 kts 323°
2026-04-22 07:59 12.68882 75.04065 33840 ft 504 kts 323°
2026-04-22 07:59 12.74963 75.00477 33832 ft 504 kts 323°
2026-04-22 08:00 12.81042 74.96889 33835 ft 504 kts 323°
2026-04-22 08:00 12.87131 74.93292 33829 ft 505 kts 323°
2026-04-22 08:01 12.93209 74.89701 33847 ft 505 kts 323°
2026-04-22 08:01 12.99587 74.86533 33918 ft 508 kts 329°
2026-04-22 08:02 13.06050 74.83549 33814 ft 510 kts 329°
2026-04-22 08:02 13.12547 74.80565 33832 ft 512 kts 329°
2026-04-22 08:03 13.19054 74.77574 33838 ft 512 kts 329°
2026-04-22 08:03 13.25567 74.74579 33831 ft 513 kts 329°
2026-04-22 08:04 13.32083 74.71581 33832 ft 513 kts 329°
2026-04-22 08:04 13.38546 74.68604 33835 ft 513 kts 329°
2026-04-22 08:05 13.45064 74.65602 33836 ft 514 kts 329°
2026-04-22 08:05 13.51583 74.62597 33831 ft 514 kts 329°
2026-04-22 08:06 13.58148 74.59568 33838 ft 514 kts 329°
2026-04-22 08:06 13.64634 74.56575 33842 ft 514 kts 329°
2026-04-22 08:07 13.71166 74.53559 33842 ft 515 kts 329°
2026-04-22 08:07 13.77690 74.50544 33830 ft 515 kts 329°
2026-04-22 08:08 13.84236 74.47517 33827 ft 515 kts 329°
2026-04-22 08:08 13.90777 74.44491 33827 ft 515 kts 329°
2026-04-22 08:09 13.97324 74.41460 33833 ft 516 kts 329°
2026-04-22 08:09 14.03730 74.38492 33824 ft 516 kts 329°
2026-04-22 08:10 14.10270 74.35461 33823 ft 516 kts 329°
2026-04-22 08:10 14.16814 74.32426 33824 ft 516 kts 329°
2026-04-22 08:11 14.23415 74.29475 33803 ft 520 kts 334°
2026-04-22 08:11 14.30197 74.26896 33822 ft 519 kts 333°
2026-04-22 08:12 14.36959 74.24247 33824 ft 519 kts 333°
2026-04-22 08:12 14.43703 74.21597 33814 ft 519 kts 333°
2026-04-22 08:13 14.50446 74.18946 33807 ft 518 kts 333°
2026-04-22 08:13 14.57179 74.16296 33808 ft 518 kts 333°
2026-04-22 08:14 14.62712 74.13979 33816 ft 515 kts 330°
2026-04-22 08:14 14.69282 74.11082 33816 ft 514 kts 330°
2026-04-22 08:15 14.75888 74.08194 33825 ft 514 kts 330°
2026-04-22 08:15 14.82484 74.05310 33822 ft 514 kts 330°
2026-04-22 08:16 14.89062 74.02431 33832 ft 513 kts 330°
2026-04-22 08:16 14.95635 73.99553 33826 ft 513 kts 330°
2026-04-22 08:17 15.02219 73.96668 33828 ft 513 kts 330°
2026-04-22 08:17 15.08472 73.93926 33827 ft 513 kts 330°
2026-04-22 08:18 15.15083 73.91026 33816 ft 513 kts 330°
2026-04-22 08:18 15.21606 73.88162 33806 ft 512 kts 330°
2026-04-22 08:19 15.28166 73.85280 33809 ft 512 kts 330°
2026-04-22 08:19 15.34743 73.82426 33793 ft 515 kts 334°
2026-04-22 08:20 15.38247 73.81527 33736 ft 525 kts 349°
2026-04-22 08:20 15.41921 73.81586 33831 ft 535 kts
2026-04-22 08:20 15.49277 73.82496 33757 ft 536 kts
2026-04-22 08:21 15.56704 73.83405 33825 ft 537 kts
2026-04-22 08:21 15.64122 73.84337 33829 ft 537 kts
2026-04-22 08:22 15.71541 73.85270 33828 ft 537 kts
2026-04-22 08:22 15.78868 73.86827 33913 ft 538 kts 12°
2026-04-22 08:23 15.86138 73.88764 33822 ft 539 kts 12°
2026-04-22 08:23 15.93413 73.90731 33850 ft 540 kts 12°
2026-04-22 08:24 16.00687 73.92701 33876 ft 539 kts 12°
2026-04-22 08:24 16.07944 73.94669 33907 ft 539 kts 12°
2026-04-22 08:25 16.15156 73.96625 33914 ft 539 kts 12°
2026-04-22 08:25 16.22433 73.98394 33918 ft 535 kts
2026-04-22 08:26 16.29819 73.99857 33907 ft 536 kts
2026-04-22 08:26 16.37131 74.01366 33915 ft 536 kts
2026-04-22 08:27 16.44459 74.02883 33928 ft 537 kts
2026-04-22 08:27 16.51777 74.04399 33948 ft 537 kts
2026-04-22 08:28 16.59067 74.05910 33944 ft 537 kts
2026-04-22 08:28 16.66397 74.07432 33935 ft 538 kts
2026-04-22 08:29 16.73739 74.08956 33939 ft 538 kts
2026-04-22 08:29 16.81080 74.10482 33934 ft 538 kts
2026-04-22 08:30 16.88431 74.11798 33881 ft 531 kts 357°
2026-04-22 08:30 16.92058 74.11502 33983 ft 518 kts 345°
2026-04-22 08:30 16.95646 74.11013 33958 ft 524 kts 348°
2026-04-22 08:31 17.02872 74.10108 33935 ft 525 kts 347°
2026-04-22 08:32 17.13725 74.08661 33926 ft 524 kts 347°
2026-04-22 08:32 17.20956 74.07692 33924 ft 523 kts 347°
2026-04-22 08:32 17.24553 74.07211 33504 ft 521 kts 347°
2026-04-22 08:33 17.28151 74.06728 32567 ft 524 kts 348°
2026-04-22 08:33 17.31771 74.06243 31899 ft 520 kts 348°
2026-04-22 08:33 17.35331 74.05765 31498 ft 511 kts 349°
2026-04-22 08:33 17.38838 74.05294 30586 ft 514 kts 349°
2026-04-22 08:34 17.42378 74.04819 30402 ft 498 kts 349°
2026-04-22 08:34 17.49133 74.03909 30400 ft 497 kts 349°
2026-04-22 08:34 17.52626 74.03440 29691 ft 500 kts 350°
2026-04-22 08:35 17.56022 74.02983 28688 ft 503 kts 350°
2026-04-22 08:35 17.59522 74.02512 27585 ft 507 kts 351°
2026-04-22 08:35 17.63077 74.02033 26545 ft 508 kts 351°
2026-04-22 08:35 17.66539 74.01567 25569 ft 509 kts 351°
2026-04-22 08:36 17.70031 74.01096 24741 ft 506 kts 351°
2026-04-22 08:36 17.73527 74.00625 23931 ft 504 kts 352°
2026-04-22 08:36 17.76992 74.00157 23045 ft 501 kts 352°
2026-04-22 08:36 17.80445 73.99692 22138 ft 498 kts 352°
2026-04-22 08:37 17.83870 73.99229 21247 ft 495 kts 352°
2026-04-22 08:37 17.87261 73.98771 20391 ft 490 kts 352°
2026-04-22 08:37 17.90629 73.98316 19550 ft 484 kts 352°
2026-04-22 08:37 17.93944 73.97868 18746 ft 477 kts 352°
2026-04-22 08:38 17.97201 73.97428 17925 ft 470 kts 352°
2026-04-22 08:38 18.00430 73.96992 17039 ft 462 kts 352°
2026-04-22 08:38 18.03594 73.96593 16154 ft 455 kts 355°
2026-04-22 08:38 18.06700 73.96305 15857 ft 438 kts 355°
2026-04-22 08:39 18.09648 73.96024 15919 ft 415 kts 355°
2026-04-22 08:39 18.12459 73.95751 15922 ft 396 kts 355°
2026-04-22 08:39 18.15175 73.95486 15503 ft 392 kts 355°
2026-04-22 08:39 18.17871 73.95222 15164 ft 386 kts 355°
2026-04-22 08:40 18.20542 73.94960 14687 ft 384 kts 355°
2026-04-22 08:40 18.22561 73.94762 14343 ft 382 kts 355°
2026-04-22 08:40 18.25204 73.94503 13884 ft 380 kts 355°
2026-04-22 08:40 18.27795 73.94249 13484 ft 375 kts 355°
2026-04-22 08:41 18.30375 73.93995 13114 ft 371 kts 356°
2026-04-22 08:41 18.32969 73.93740 12736 ft 369 kts 355°
2026-04-22 08:41 18.35487 73.93490 12368 ft 368 kts 356°
2026-04-22 08:41 18.38057 73.93234 11985 ft 366 kts 355°
2026-04-22 08:42 18.40547 73.92989 11623 ft 364 kts 355°
2026-04-22 08:42 18.43061 73.92743 11265 ft 362 kts 356°
2026-04-22 08:42 18.45559 73.92500 10913 ft 360 kts 355°
2026-04-22 08:42 18.48046 73.92292 10556 ft 357 kts
2026-04-22 08:43 18.50473 73.92737 10138 ft 353 kts 22°
2026-04-22 08:43 18.52480 73.94154 9789 ft 348 kts 48°
2026-04-22 08:43 18.53631 73.96341 9415 ft 345 kts 75°
2026-04-22 08:43 18.53748 73.98857 8738 ft 350 kts 101°
2026-04-22 08:44 18.52780 74.01225 8004 ft 357 kts 123°
2026-04-22 08:44 18.51373 74.03385 7295 ft 359 kts 121°
2026-04-22 08:44 18.50039 74.05610 6659 ft 354 kts 121°
2026-04-22 08:44 18.48903 74.07794 6508 ft 327 kts 111°
2026-04-22 08:45 18.48558 74.10049 6313 ft 304 kts 82°
2026-04-22 08:45 18.49302 74.12028 6104 ft 285 kts 52°
2026-04-22 08:45 18.50576 74.13558 5876 ft 269 kts 49°
2026-04-22 08:45 18.51797 74.14985 5678 ft 256 kts 48°
2026-04-22 08:46 18.52975 74.16333 5470 ft 245 kts 47°
2026-04-22 08:46 18.54100 74.17623 5239 ft 234 kts 48°
2026-04-22 08:46 18.55191 74.18877 5091 ft 231 kts 48°
2026-04-22 08:46 18.56287 74.20126 4881 ft 232 kts 46°
2026-04-22 08:47 18.57619 74.21048 4603 ft 231 kts 18°
2026-04-22 08:47 18.59211 74.21092 4345 ft 233 kts 346°
2026-04-22 08:47 18.60592 74.20237 4149 ft 236 kts 314°
2026-04-22 08:47 18.61363 74.18727 3920 ft 237 kts 282°
2026-04-22 08:48 18.61285 74.17017 3657 ft 234 kts 251°
2026-04-22 08:48 18.60470 74.15602 3611 ft 224 kts 231°
2026-04-22 08:48 18.59475 74.14385 3554 ft 223 kts 225°
2026-04-22 08:48 18.58379 74.13252 3545 ft 208 kts 224°
2026-04-22 08:49 18.57360 74.12202 3554 ft 203 kts 224°
2026-04-22 08:49 18.56356 74.11165 3520 ft 202 kts 225°
2026-04-22 08:49 18.55703 74.09890 3452 ft 200 kts 265°
2026-04-22 08:49 18.56035 74.08508 3529 ft 198 kts 297°
2026-04-22 08:50 18.56528 74.07147 3601 ft 200 kts 287°
2026-04-22 08:50 18.56846 74.05716 3573 ft 200 kts 282°
2026-04-22 08:50 18.57097 74.04299 3573 ft 200 kts 280°
2026-04-22 08:50 18.57299 74.02844 3544 ft 200 kts 278°
2026-04-22 08:51 18.57469 74.01387 3553 ft 200 kts 277°
2026-04-22 08:51 18.57615 73.99932 3513 ft 195 kts 276°
2026-04-22 08:51 18.57734 73.98602 3504 ft 172 kts 276°
2026-04-22 08:51 18.57832 73.97425 3433 ft 153 kts 275°
2026-04-22 08:52 18.57912 73.96293 3227 ft 157 kts 276°
2026-04-22 08:52 18.57983 73.95123 2903 ft 161 kts 274°
2026-04-22 08:52 18.58052 73.93942 2441 ft 162 kts 275°
2026-04-22 08:52 18.58177 73.92766 1982 ft 159 kts 274°
2026-04-22 08:53 18.58248 73.91756 1926 ft 99 kts 272°
2026-04-22 08:53 18.58275 73.91131 1926 ft 77 kts 273°
2026-04-22 08:53 18.58296 73.90804 1926 ft 17 kts 265°
2026-04-22 08:53 18.58262 73.90766 1926 ft 5 kts 182°
2026-04-22 08:54 18.58220 73.90766 1926 ft 7 kts 181°
2026-04-22 08:54 18.58165 73.90766 1926 ft 9 kts 179°
2026-04-22 08:54 18.58100 73.90773 1926 ft 9 kts 168°
2026-04-22 08:54 18.58072 73.90809 1926 ft 5 kts 103°
2026-04-22 08:55 18.58066 73.90845 1926 ft 1 kts 115°
2026-04-22 08:55 18.58065 73.90846 1926 ft 0 kts 139°
2026-04-22 08:55 18.58061 73.90845 1926 ft 2 kts 178°
2026-04-22 08:55 18.58017 73.90839 1926 ft 10 kts 187°
2026-04-22 08:56 18.58014 73.90839 1926 ft 0 kts 187°
2026-04-22 08:57 18.58009 73.90838 1926 ft 0 kts 187°